Regional Weather Roundup
Issued by NWS

Home | Current Version | Previous Version | Graphics & Text | Print | Product List | Glossary Off
Versions: 1 2 3 4 5 6 7 8 9 10 11 12 13 14 15 16 17 18 19 20 21 22 23 24 25 26 27 28 29 30 31 32 33 34 35 36 37 38 39 40 41 42 43 44 45 46 47 48 49 50

000
ASUS43 KTOP 230059
RWRKS

WEATHER ROUNDUP FOR KANSAS
NATIONAL WEATHER SERVICE GOODLAND KS
700 PM CST SUN JAN 22 2017

NOTE:  "FAIR" INDICATES FEW OR NO CLOUDS BELOW 12,000 FEET WITH NO
SIGNIFICANT WEATHER AND/OR OBSTRUCTIONS TO VISIBILITY.

KSZ001>006-013>018-027>032-041>047-230200-
NORTHWEST KANSAS

CITY           SKY/WX    TMP DP  RH WIND       PRES   REMARKS
GOODLAND       CLEAR     32  25  75 W6        29.90F
HAYS           CLEAR     41  26  55 N6        29.91R
HILL CITY      CLEAR     34  27  75 W5        29.91R
RUSSELL        CLEAR     39  25  57 NW7       29.90R
$$

KSZ061>065-074>080-084>089-230200-
SOUTHWEST KANSAS

CITY           SKY/WX    TMP DP  RH WIND       PRES   REMARKS
DODGE CITY     CLEAR     36  26  67 NW9       29.94R
ELKHART          N/A     41  21  44 N5          N/A
GARDEN CITY    CLEAR     37  28  70 N8        29.93R
GREAT BEND     CLEAR     38  28  67 NW6       29.91R
LIBERAL          N/A     39  21  48 NW5       29.95S
$$

KSZ066>073-081>083-090>101-230200-
SOUTHEAST KANSAS

CITY           SKY/WX    TMP DP  RH WIND       PRES   REMARKS
CHANUTE        CLOUDY    39  32  76 N12       29.86R WCI  32
COFFEYVILLE    CLEAR     39  33  79 N16G32    29.85R WCI  30
HUTCHINSON     CLEAR     41  26  55 N8        29.89R
MEDICINE LODGE   N/A     43  27  53 N3        29.91R
NEWTON         CLEAR     37  32  82 N10       29.89R WCI  30
PARSONS        MOCLDY    39  32  76 N15       29.86R WCI  31
WICHITA INTL   CLEAR     45  30  55 N12       29.88R
WICHITA JABRA  CLEAR     39  31  72 N9        29.88R
WINFIELD       CLEAR     40  32  73 NW10      29.88R WCI  33
$$

KSZ007>012-019>026-033>040-048>060-102>105-230200-
NORTHEAST KANSAS

CITY           SKY/WX    TMP DP  RH WIND       PRES   REMARKS
CONCORDIA      CLEAR     39  32  76 NW3       29.89R
EMPORIA        CLEAR     35  31  85 NW10      29.87R WCI  27
LAWRENCE       CLOUDY    39  35  86 NW14      29.86R WCI  31
MANHATTAN      CLEAR     32  29  88 CALM      29.89R
OLATHE IND     CLOUDY    38  34  85 NW13      29.83R WCI  30
OLATHE EXE     CLOUDY    37  33  85 N12G20    29.82R WCI  29
SALINA         CLEAR     41  30  65 N7        29.89S
TOPEKA BILLARD CLOUDY    41  34  76 NW12      29.87R
TOPEKA FORBES  CLOUDY    41  34  76 N13G20    29.86R
$$



USA.gov is the U.S. government's official web portal to all federal, state and local government web resources and services.